CST,Max TemperatureF,Mean TemperatureF,Min TemperatureF,Max Dew PointF,MeanDew PointF,Min DewpointF,Max Humidity, Mean Humidity, Min Humidity, Max Sea Level PressureIn, Mean Sea Level PressureIn, Min Sea Level PressureIn, Max VisibilityMiles, Mean VisibilityMiles, Min VisibilityMiles, Max Wind SpeedMPH, Mean Wind SpeedMPH, Max Gust SpeedMPH,PrecipitationIn, CloudCover, Events, WindDirDegrees
2013-1-1,53,48,42,54,43,36,100,87,76,30.28,30.15,30.02,10,9,3,13,6,17,0.01,8,Rain,351
2013-1-2,42,38,35,36,32,32,87,78,66,30.36,30.30,30.26,10,10,9,10,4,,0.00,4,,354
2013-1-3,51,40,28,34,32,28,100,71,47,30.46,30.41,30.36,10,9,4,9,2,16,0.00,2,,10
2013-1-4,48,42,37,43,37,32,93,77,58,30.57,30.46,30.41,10,10,4,8,2,,0.12,5,Rain,46
2013-1-5,48,42,35,43,40,34,100,90,76,30.42,30.36,30.30,10,9,2,0,0,,0.04,7,Rain,-1
2013-1-6,59,46,33,46,37,32,100,85,39,30.41,30.35,30.31,10,6,0,9,1,,0.00,4,Fog,12
2013-1-7,57,44,30,39,35,28,100,74,41,30.37,30.28,30.15,10,10,7,8,1,,0.00,1,,85
2013-1-8,60,51,42,59,51,39,100,91,71,30.15,30.06,29.98,10,7,1,10,3,,0.93,7,Rain-Thunderstorm,82
2013-1-9,64,62,59,64,62,59,100,98,94,30.10,30.03,29.98,10,6,1,12,6,17,1.32,8,Rain-Thunderstorm,70
2013-1-10,66,55,44,63,52,43,100,81,49,30.09,30.03,29.99,10,10,6,17,6,24,0.01,2,,200
2013-1-11,73,58,42,63,51,43,100,78,44,30.07,29.98,29.89,10,10,10,10,2,17,0.00,2,,159
2013-1-12,73,60,44,70,65,45,100,93,78,29.92,29.83,29.74,10,6,1,17,7,24,0.07,8,Rain-Thunderstorm,163
2013-1-13,48,42,37,43,35,30,93,79,57,30.22,30.10,29.88,10,9,2,14,9,21,0.35,4,Rain-Thunderstorm,345
2013-1-14,44,38,33,34,32,30,93,81,66,30.29,30.22,30.17,10,10,10,16,9,24,0.00,5,,20
2013-1-15,35,34,32,34,32,28,100,92,81,30.22,30.17,30.10,10,7,1,13,6,17,0.15,8,Rain,7
2013-1-16,46,37,28,32,27,19,100,71,37,30.32,30.26,30.16,10,10,10,15,4,20,0.00,2,,319
2013-1-17,60,44,28,36,31,25,100,74,36,30.51,30.39,30.29,10,10,8,9,1,16,0.00,0,,323
2013-1-18,62,48,35,37,34,32,93,66,32,30.57,30.47,30.39,10,10,10,9,1,,0.00,0,,154
2013-1-19,64,50,35,46,40,34,100,77,45,30.38,30.30,30.22,10,10,2,8,1,,0.00,0,,181
2013-1-20,68,54,39,55,46,39,100,84,49,30.31,30.22,30.14,10,7,0,9,1,,0.00,3,Fog,210
2013-1-21,66,52,39,52,46,39,100,80,52,30.26,30.22,30.18,10,9,1,9,1,,0.00,0,,291
2013-1-22,68,54,39,52,44,36,93,72,49,30.37,30.29,30.25,10,10,10,10,1,,0.00,1,Rain,167
2013-1-23,73,60,46,57,52,46,100,79,44,30.38,30.30,30.24,10,8,0,12,3,17,0.00,1,Fog-Rain,187
2013-1-24,75,65,55,63,60,55,100,87,65,30.30,30.21,30.14,10,9,5,15,5,18,0.00,4,,185
2013-1-25,77,67,57,63,59,54,100,80,53,30.21,30.14,30.08,10,10,7,13,6,18,0.00,6,,192
2013-1-26,71,64,57,63,58,54,100,89,69,30.23,30.17,30.13,10,6,0,8,1,,0.00,6,Fog,60
2013-1-27,75,66,57,64,61,55,100,86,65,30.17,30.11,30.05,10,9,3,14,5,24,0.01,3,Rain,157
2013-1-28,80,73,66,66,63,57,94,77,45,30.13,30.05,29.97,10,10,8,17,9,25,0.00,5,Rain,161
2013-1-29,77,66,55,66,64,54,100,83,65,29.97,29.77,29.57,10,8,2,25,10,33,0.14,6,Rain-Thunderstorm,172
2013-1-30,55,44,33,54,33,27,94,58,35,30.22,30.01,29.78,10,10,10,24,7,32,0.01,2,,289
2013-1-31,64,47,30,34,30,27,100,61,24,30.32,30.26,30.21,10,10,10,14,2,20,0.00,0,,222